EN

Hourly Weather Almuniente

Today, 23 January, Saturday

Time Temperature Precipitation Wind Pressure Humidity
00:00 +3°C° 0 mm 4 mps 719 mmHg 80%
01:00 +3°C° 0 mm 4 mps 719 mmHg 80%
02:00 +3°C° 0 mm 4 mps 719 mmHg 79%
03:00 +3°C° 0 mm 4 mps 718 mmHg 79%
04:00 +3°C° 0 mm 4 mps 718 mmHg 79%
05:00 +3°C° 0 mm 4 mps 718 mmHg 79%
06:00 +2°C° 0 mm 5 mps 717 mmHg 79%
07:00 +2°C° 0.2 mm 5 mps 718 mmHg 79%
08:00 +3°C° 0.2 mm 6 mps 718 mmHg 79%
09:00 +3°C° 0.2 mm 6 mps 718 mmHg 80%
10:00 +4°C° 0.3 mm 7 mps 718 mmHg 74%
11:00 +5°C° 0.3 mm 8 mps 718 mmHg 69%
12:00 +9°C° 0 mm 8 mps 718 mmHg 60%
13:00 +9°C° 0.1 mm 7 mps 718 mmHg 62%
14:00 +9°C° 0.1 mm 7 mps 717 mmHg 65%
15:00 +8°C° 0.1 mm 6 mps 716 mmHg 68%
16:00 +8°C° 0.4 mm 6 mps 716 mmHg 72%
17:00 +8°C° 0.4 mm 5 mps 715 mmHg 77%
18:00 +7°C° 0.4 mm 5 mps 714 mmHg 81%
19:00 +7°C° 0.1 mm 5 mps 714 mmHg 81%
20:00 +8°C° 0.1 mm 5 mps 713 mmHg 81%
21:00 +8°C° 0.1 mm 5 mps 713 mmHg 81%
22:00 +5°C° 0.4 mm 2 mps 713 mmHg 94%
23:00 +5°C° 0.4 mm 2 mps 713 mmHg 93%

Tomorrow, 24 January, Sunday

Time Temperature Precipitation Wind Pressure Humidity
00:00 +5°C° 0.4 mm 2 mps 712 mmHg 93%
01:00 +4°C° 0.1 mm 3 mps 713 mmHg 92%
02:00 +4°C° 0.1 mm 3 mps 713 mmHg 91%
03:00 +4°C° 0.1 mm 4 mps 713 mmHg 90%
04:00 +3°C° 0 mm 6 mps 714 mmHg 88%
05:00 +2°C° 0 mm 8 mps 715 mmHg 85%
06:00 +2°C° 0 mm 10 mps 716 mmHg 82%
07:00 +2°C° 0 mm 9 mps 717 mmHg 79%
08:00 +2°C° 0 mm 9 mps 718 mmHg 76%
09:00 +2°C° 0 mm 9 mps 719 mmHg 73%
10:00 +3°C° 0 mm 9 mps 719 mmHg 70%
11:00 +5°C° 0 mm 9 mps 719 mmHg 67%
12:00 +6°C° 0 mm 9 mps 719 mmHg 65%
13:00 +7°C° 0 mm 9 mps 719 mmHg 63%
14:00 +7°C° 0 mm 9 mps 719 mmHg 61%
15:00 +7°C° 0 mm 9 mps 719 mmHg 59%
16:00 +6°C° 0 mm 8 mps 720 mmHg 64%
17:00 +5°C° 0 mm 7 mps 720 mmHg 68%
18:00 +4°C° 0 mm 7 mps 721 mmHg 73%
19:00 +4°C° 0 mm 7 mps 721 mmHg 75%
20:00 +4°C° 0 mm 7 mps 721 mmHg 78%
21:00 +3°C° 0 mm 7 mps 722 mmHg 80%
22:00 +3°C° 0 mm 7 mps 722 mmHg 81%
23:00 +3°C° 0 mm 7 mps 722 mmHg 82%

Day after tomorrow, 25 January, Monday

Time Temperature Precipitation Wind Pressure Humidity
00:00 +2°C° 0 mm 7 mps 723 mmHg 83%
01:00 +2°C° 0 mm 7 mps 723 mmHg 84%
02:00 +2°C° 0 mm 6 mps 723 mmHg 85%
03:00 +2°C° 0 mm 6 mps 723 mmHg 86%
04:00 +2°C° 0 mm 6 mps 723 mmHg 85%
05:00 +2°C° 0 mm 5 mps 723 mmHg 85%
06:00 +1°C° 0 mm 5 mps 724 mmHg 84%
07:00 +2°C° 0 mm 5 mps 724 mmHg 83%
08:00 +2°C° 0 mm 5 mps 725 mmHg 81%
09:00 +3°C° 0 mm 5 mps 725 mmHg 79%
10:00 +5°C° 0 mm 5 mps 726 mmHg 72%
11:00 +6°C° 0 mm 5 mps 726 mmHg 64%
12:00 +8°C° 0 mm 6 mps 726 mmHg 56%
13:00 +8°C° 0 mm 5 mps 726 mmHg 57%
14:00 +8°C° 0 mm 5 mps 726 mmHg 59%
15:00 +8°C° 0 mm 5 mps 726 mmHg 60%
16:00 +7°C° 0 mm 4 mps 726 mmHg 64%
17:00 +6°C° 0 mm 4 mps 726 mmHg 69%
18:00 +5°C° 0 mm 3 mps 726 mmHg 73%
19:00 +4°C° 0 mm 3 mps 727 mmHg 75%
20:00 +5°C° 0 mm 2 mps 727 mmHg 77%
21:00 +4°C° 0 mm 2 mps 727 mmHg 80%
22:00 +4°C° 0 mm 2 mps 727 mmHg 80%
23:00 +3°C° 0 mm 2 mps 728 mmHg 80%

26 January, Tuesday

Time Temperature Precipitation Wind Pressure Humidity
00:00 +3°C° 0 mm 2 mps 728 mmHg 80%
01:00 +4°C° 0 mm 1 mps 728 mmHg 80%
02:00 +4°C° 0 mm 1 mps 727 mmHg 80%
03:00 +4°C° 0 mm 1 mps 727 mmHg 81%
04:00 +3°C° 0 mm 1 mps 727 mmHg 80%
05:00 +3°C° 0 mm 1 mps 727 mmHg 80%
06:00 +3°C° 0 mm 1 mps 727 mmHg 80%
07:00 +4°C° 0 mm 1 mps 727 mmHg 77%
08:00 +5°C° 0 mm 1 mps 727 mmHg 74%
09:00 +6°C° 0 mm 1 mps 728 mmHg 71%
10:00 +6°C° 0 mm 1 mps 727 mmHg 71%
11:00 +7°C° 0 mm 1 mps 727 mmHg 70%
12:00 +7°C° 0 mm 1 mps 727 mmHg 69%
13:00 +7°C° 0.2 mm 1 mps 727 mmHg 74%
14:00 +7°C° 0.2 mm 1 mps 727 mmHg 78%
15:00 +7°C° 0.2 mm 1 mps 727 mmHg 82%
16:00 +7°C° 0 mm 1 mps 727 mmHg 84%
17:00 +6°C° 0 mm 2 mps 727 mmHg 86%
18:00 +6°C° 0 mm 2 mps 727 mmHg 88%
19:00 +5°C° 0 mm 3 mps 728 mmHg 90%
20:00 +5°C° 0 mm 3 mps 728 mmHg 91%
21:00 +4°C° 0 mm 4 mps 728 mmHg 93%
22:00 +5°C° 0 mm 4 mps 729 mmHg 92%
23:00 +5°C° 0 mm 4 mps 729 mmHg 91%

27 January, Wednesday

Time Temperature Precipitation Wind Pressure Humidity
00:00 +6°C° 0 mm 5 mps 729 mmHg 90%
01:00 +6°C° 0 mm 5 mps 729 mmHg 89%
02:00 +6°C° 0 mm 5 mps 729 mmHg 88%
03:00 +6°C° 0 mm 5 mps 729 mmHg 88%
04:00 +6°C° 0 mm 5 mps 729 mmHg 88%
05:00 +6°C° 0 mm 4 mps 729 mmHg 88%
06:00 +6°C° 0 mm 4 mps 729 mmHg 88%
07:00 +6°C° 0 mm 4 mps 730 mmHg 87%
08:00 +7°C° 0 mm 4 mps 730 mmHg 87%
09:00 +8°C° 0 mm 3 mps 730 mmHg 86%
10:00 +8°C° 0 mm 4 mps 730 mmHg 80%
11:00 +11°C° 0 mm 4 mps 730 mmHg 75%
12:00 +12°C° 0 mm 4 mps 730 mmHg 69%
13:00 +13°C° 0 mm 4 mps 730 mmHg 68%
14:00 +13°C° 0 mm 5 mps 729 mmHg 67%
15:00 +14°C° 0 mm 5 mps 729 mmHg 66%
16:00 +12°C° 0 mm 4 mps 729 mmHg 71%
17:00 +11°C° 0 mm 3 mps 729 mmHg 77%
18:00 +9°C° 0 mm 3 mps 729 mmHg 83%
19:00 +9°C° 0 mm 2 mps 729 mmHg 82%
20:00 +9°C° 0 mm 2 mps 729 mmHg 82%
21:00 +9°C° 0 mm 1 mps 730 mmHg 81%
22:00 +9°C° 0 mm 1 mps 729 mmHg 81%
23:00 +9°C° 0 mm 1 mps 729 mmHg 81%

28 January, Thursday

Time Temperature Precipitation Wind Pressure Humidity
00:00 +8°C° 0 mm 1 mps 729 mmHg 81%
01:00 +8°C° 0 mm 1 mps 729 mmHg 81%
02:00 +7°C° 0 mm 2 mps 729 mmHg 82%
03:00 +7°C° 0 mm 2 mps 729 mmHg 83%
04:00 +8°C° 0 mm 1 mps 729 mmHg 83%
05:00 +8°C° 0 mm 1 mps 729 mmHg 84%
06:00 +8°C° 0 mm 1 mps 729 mmHg 85%
07:00 +9°C° 0 mm 1 mps 729 mmHg 83%
08:00 +10°C° 0 mm 1 mps 730 mmHg 81%
09:00 +10°C° 0 mm 2 mps 730 mmHg 79%
10:00 +12°C° 0 mm 2 mps 730 mmHg 74%
11:00 +13°C° 0 mm 3 mps 730 mmHg 70%
12:00 +15°C° 0 mm 4 mps 731 mmHg 66%
13:00 +15°C° 0 mm 4 mps 730 mmHg 66%
14:00 +15°C° 0 mm 4 mps 730 mmHg 65%
15:00 +15°C° 0 mm 4 mps 729 mmHg 65%
16:00 +14°C° 0 mm 4 mps 730 mmHg 70%
17:00 +13°C° 0 mm 4 mps 730 mmHg 76%
18:00 +11°C° 0 mm 4 mps 730 mmHg 81%
Show more